Weather History for Dover AFB, DE

Change the Weather History Date:

Monday, November 5, 2012

  Actual Average Record
Temperature  
Mean Temperature 39 °F -  
Max Temperature 46 °F 62 °F 82 °F (1961)
Min Temperature 31 °F 42 °F 26 °F (1998)
Degree Days  
Heating Degree Days 26    
Moisture  
Dew Point 28 °F    
Average Humidity 63    
Maximum Humidity 78    
Minimum Humidity 50    
Precipitation  
Precipitation 0.00 in - - ()
Sea Level Pressure  
Sea Level Pressure 30.08 in    
Wind  
Wind Speed 11 mph (NW)    
Max Wind Speed 16 mph    
Max Gust Speed 21 mph    
Visibility 10 miles    
Events      
Averages and records for this station are not official NWS values.
T = Trace of Precipitation, MM = Missing Value Source: NWS Daily Summary

Daily Weather History Graph

Daily Weather History Graph

Search for Another Location

Airport:

Trip Planner

Search our weather history database for the weather conditions in past years. The results will help you decide how hot, cold, wet, or windy it might be!

Date:

Astronomy

Nov. 05, 2012 Rise Set
Actual Time 6:34 AM EST 4:56 PM EST
Civil Twilight 6:06 AM EST 5:24 PM EST
Nautical Twilight 5:34 AM EST 5:55 PM EST
Astronomical Twilight 5:03 AM EST 6:27 PM EST
Moon 10:31 PM EST (11/5) 11:52 AM EST (11/5)
Length of Visible Light 11h 17m
Length of Day
10h 21m
Waning Gibbous, 63% of the Moon is Illuminated
Nov 5
Waning Gibbous
Nov 6
Last Quarter
Nov 13
New
Nov 20
First Quarter
Nov 28
Full

Hourly Weather History & Observations

Time (EST) Temp. Windchill Dew Point Humidity Pressure Visibility Wind Dir Wind Speed Gust Speed Precip Events Conditions
12:55 AM 40.6 °F 33.8 °F 28.8 °F 63% 30.02 in 10.0 mi NW 11.5 mph - N/A   Overcast
1:55 AM 40.5 °F 34.6 °F 28.9 °F 64% 30.02 in 10.0 mi WNW 9.2 mph - N/A   Overcast
2:55 AM 40.5 °F 34.6 °F 28.8 °F 63% 30.01 in 10.0 mi NW 9.2 mph - N/A   Overcast
3:55 AM 40.3 °F 33.9 °F 29.1 °F 64% 30.00 in 10.0 mi NW 10.4 mph - N/A   Overcast
4:55 AM 40.3 °F 33.4 °F 29.1 °F 64% 30.02 in 10.0 mi NW 11.5 mph - N/A   Overcast
5:55 AM 40.1 °F 33.6 °F 29.1 °F 65% 30.04 in 10.0 mi NW 10.4 mph - N/A   Overcast
6:37 AM 39.2 °F 31.6 °F 28.4 °F 65% 30.05 in 10.0 mi NNW 12.7 mph - N/A   Overcast
6:55 AM 39.6 °F 33.5 °F 28.8 °F 65% 30.05 in 10.0 mi NW 9.2 mph - N/A   Overcast
7:46 AM 39.2 °F 31.2 °F 28.4 °F 65% 30.06 in 10.0 mi NW 13.8 mph - N/A   Overcast
7:55 AM 39.7 °F 32.3 °F 28.9 °F 65% 30.07 in 10.0 mi NW 12.7 mph - N/A   Overcast
8:08 AM 39.2 °F 33.0 °F 28.4 °F 65% 30.07 in 10.0 mi NW 9.2 mph - N/A   Overcast
8:27 AM 39.2 °F 32.0 °F 28.4 °F 65% 30.08 in 10.0 mi NW 11.5 mph - N/A   Overcast
8:55 AM 39.9 °F 32.9 °F 28.2 °F 63% 30.07 in 10.0 mi NW 11.5 mph - N/A   Overcast
9:55 AM 39.7 °F 31.5 °F 26.6 °F 59% 30.08 in 10.0 mi NNW 15.0 mph - N/A   Overcast
10:55 AM 43.0 °F 36.8 °F 27.1 °F 54% 30.08 in 10.0 mi North 11.5 mph - N/A   Scattered Clouds
11:55 AM 44.1 °F 37.4 °F 27.1 °F 51% 30.07 in 10.0 mi NNW 13.8 mph 19.6 mph N/A   Partly Cloudy
12:55 PM 45.0 °F 40.6 °F 27.7 °F 51% 30.06 in 10.0 mi NW 8.1 mph - N/A   Scattered Clouds
1:55 PM 46.0 °F 39.3 °F 28.0 °F 50% 30.05 in 10.0 mi NW 16.1 mph - N/A   Scattered Clouds
2:55 PM 45.0 °F 39.3 °F 27.3 °F 50% 30.06 in 10.0 mi NW 11.5 mph 20.7 mph N/A   Clear
3:55 PM 44.1 °F 39.0 °F 27.7 °F 53% 30.06 in 10.0 mi NNW 9.2 mph - N/A   Partly Cloudy
4:55 PM 41.2 °F 34.5 °F 27.3 °F 58% 30.08 in 10.0 mi NW 11.5 mph - N/A   Clear
5:55 PM 38.7 °F 32.4 °F 26.8 °F 62% 30.11 in 10.0 mi NW 9.2 mph - N/A   Clear
6:55 PM 35.8 °F 30.9 °F 27.0 °F 70% 30.12 in 10.0 mi NNW 5.8 mph - N/A   Partly Cloudy
7:55 PM 36.3 °F 29.5 °F 27.3 °F 70% 30.14 in 10.0 mi NNW 9.2 mph - N/A   Clear
8:55 PM 35.8 °F 28.8 °F 25.9 °F 67% 30.16 in 10.0 mi NW 9.2 mph - N/A   Clear
9:55 PM 33.8 °F 27.7 °F 25.5 °F 72% 30.17 in 10.0 mi NW 6.9 mph - N/A   Clear
10:55 PM 32.4 °F 26.0 °F 25.2 °F 75% 30.17 in 10.0 mi NNW 6.9 mph - N/A   Clear
11:55 PM 31.1 °F 27.7 °F 25.0 °F 78% 30.18 in 10.0 mi NW 3.5 mph - N/A   Clear